CW1084 Weather Reports


Display with metric or nautical units.
time (UTC)temp
F
wind
direction
speed
MPH
gust
MPH
rain 1hr
in
rain 24hr
in
rain mn
in
humidity
%
barometer
mb
20260505021205 63 169 0.0 0.0 0.00 0.00 0.00 54 1010.0
20260505020505 63 169 0.0 0.0 0.00 0.00 0.00 54 1009.9
20260505015816 63 169 0.0 0.0 0.00 0.00 0.00 55 1009.9
20260505015531 63 169 0.0 0.0 0.00 0.00 0.00 56 1009.9
20260505014704 64 169 0.0 0.0 0.00 0.00 0.00 59 1010.0
20260505014700 64 169 0.0 1.0 0.00 0.00 0.00 60 1010.0
20260505014656 64 169 0.0 1.0 0.00 0.00 0.00 60 1010.0
20260505014607 64 169 0.0 0.0 0.00 0.00 0.00 58 1010.0
20260505012536 64 169 0.0 1.0 0.00 0.00 0.00 57 1009.9
20260505011659 64 169 0.0 0.0 0.00 0.00 0.00 55 1009.9
20260505011634 65 169 0.0 0.0 0.00 0.00 0.00 56 1009.9
20260505010451 65 169 0.0 0.0 0.00 0.00 0.00 56 1009.9
20260505010242 65 169 0.0 0.0 0.00 0.00 0.00 55 1009.7
20260505005527 65 169 0.0 0.0 0.00 0.00 0.00 55 1009.6
20260505005027 66 169 0.0 0.0 0.00 0.00 0.00 54 1009.5
20260505004954 65 169 0.0 0.0 0.00 0.00 0.00 54 1009.6
20260505004415 66 169 0.0 0.0 0.00 0.00 0.00 54 1009.5
20260505003442 66 169 0.0 0.0 0.00 0.00 0.00 54 1009.5
20260505002721 67 169 0.0 0.0 0.00 0.00 0.00 53 1009.5
20260505001832 67 169 0.0 0.0 0.00 0.00 0.00 53 1009.6
20260505001256 67 169 0.0 4.0 0.00 0.00 0.00 53 1009.5
20260505000729 68 169 0.0 4.0 0.00 0.00 0.00 52 1009.5
20260505000417 68 169 0.0 0.0 0.00 0.00 0.00 51 1009.4
20260504235639 69 169 0.0 0.0 0.00 0.00 0.00 50 1009.3
20260504235054 69 169 0.0 0.0 0.00 0.00 0.00 49 1009.3
20260504234528 70 169 0.0 0.0 0.00 0.00 0.00 49 1009.3
20260504234031 70 169 0.0 0.0 0.00 0.00 0.00 48 1009.3
20260504233530 70 169 0.0 0.0 0.00 0.00 0.00 47 1009.3
20260504233157 71 169 0.0 0.0 0.00 0.00 0.00 47 1009.3
20260504232320 71 169 0.0 0.0 0.00 0.00 0.00 45 1009.2
20260504231746 71 169 0.0 0.0 0.00 0.00 0.00 45 1009.1
20260504231241 71 169 0.0 2.0 0.00 0.00 0.00 44 1009.1
20260504230653 71 169 0.0 2.0 0.00 0.00 0.00 43 1009.1
20260504230124 71 169 0.0 0.0 0.00 0.00 0.00 42 1009.1
20260504225543 71 169 0.0 2.0 0.00 0.00 0.00 42 1009.1
20260504225004 71 169 0.0 7.0 0.00 0.00 0.00 41 1009.2
20260504224428 70 169 1.0 7.0 0.00 0.00 0.00 42 1009.3
20260504223901 70 171 0.0 3.0 0.00 0.00 0.00 43 1009.2
20260504223334 70 171 0.0 0.0 0.00 0.00 0.00 44 1009.2
20260504223235 69 171 0.0 5.0 0.00 0.00 0.00 48 1009.3
20260504222229 69 165 0.0 1.0 0.00 0.00 0.00 53 1009.3
20260504221630 69 165 0.0 1.0 0.00 0.00 0.00 54 1009.3
20260504221046 69 165 0.0 1.0 0.00 0.00 0.00 54 1009.4
20260504220507 69 165 0.0 5.0 0.00 0.00 0.00 54 1009.4
20260504215934 69 165 0.0 5.0 0.00 0.00 0.00 55 1009.5
20260504215624 69 166 1.0 7.0 0.00 0.00 0.00 55 1009.4
20260504214838 69 166 1.0 7.0 0.00 0.00 0.00 55 1009.5
20260504214443 69 159 1.0 7.0 0.00 0.00 0.00 55 1009.5
20260504213723 69 137 1.0 7.0 0.00 0.00 0.00 56 1009.5
20260504213418 69 102 1.0 11.0 0.00 0.00 0.00 56 1009.5
20260504212820 69 142 2.0 11.0 0.00 0.00 0.00 56 1009.6
20260504212412 70 196 1.0 10.0 0.00 0.00 0.00 55 1009.7
20260504211424 70 130 1.0 8.0 0.00 0.00 0.00 55 1009.7
20260504210910 70 137 1.0 8.0 0.00 0.00 0.00 55 1009.7
20260504210333 70 140 2.0 9.0 0.00 0.00 0.00 54 1009.7
20260504205749 70 223 2.0 5.0 0.00 0.00 0.00 55 1009.6
20260504205202 70 143 2.0 10.0 0.00 0.00 0.00 53 1009.7
20260504204628 71 194 1.0 9.0 0.00 0.00 0.00 52 1009.6
20260504204052 71 207 1.0 8.0 0.00 0.00 0.00 50 1009.6
20260504203523 71 208 1.0 8.0 0.00 0.00 0.00 50 1009.7
20260504202957 71 169 2.0 11.0 0.00 0.00 0.00 49 1009.7
20260504202429 71 178 2.0 11.0 0.00 0.00 0.00 49 1009.8
20260504201851 71 150 2.0 9.0 0.00 0.00 0.00 47 1009.8
20260504201303 71 153 2.0 9.0 0.00 0.00 0.00 47 1009.9
20260504200727 71 146 2.0 12.0 0.00 0.00 0.00 47 1010.0
20260504200419 71 205 2.0 12.0 0.00 0.00 0.00 47 1010.1
20260504195728 71 132 3.0 13.0 0.00 0.00 0.00 47 1010.2
20260504195032 71 155 3.0 13.0 0.00 0.00 0.00 47 1010.2
20260504194743 71 137 3.0 12.0 0.00 0.00 0.00 47 1010.2
20260504193935 71 123 2.0 12.0 0.00 0.00 0.00 46 1010.4
20260504193407 71 130 1.0 9.0 0.00 0.00 0.00 47 1010.6
20260504192820 71 144 2.0 10.0 0.00 0.00 0.00 46 1010.6
20260504192250 71 176 2.0 10.0 0.00 0.00 0.00 46 1010.7
20260504191712 71 155 2.0 9.0 0.00 0.00 0.00 45 1010.8
20260504191112 71 153 1.0 5.0 0.00 0.00 0.00 46 1010.8
20260504190535 71 109 2.0 10.0 0.00 0.00 0.00 46 1010.7
20260504190030 71 128 1.0 11.0 0.00 0.00 0.00 48 1010.7
20260504185620 70 229 1.0 11.0 0.00 0.00 0.00 47 1010.9
20260504185217 70 165 2.0 12.0 0.00 0.00 0.00 48 1011.0
20260504184952 70 165 2.0 12.0 0.00 0.00 0.00 48 1011.0
20260504184332 69 166 2.0 12.0 0.00 0.00 0.00 47 1011.1
20260504183632 70 142 2.0 9.0 0.00 0.00 0.00 49 1011.1
20260504183049 70 161 2.0 9.0 0.00 0.00 0.00 47 1011.1
20260504182521 71 137 2.0 9.0 0.00 0.00 0.00 48 1011.2
20260504181947 71 152 2.0 10.0 0.00 0.00 0.00 49 1011.2
20260504181341 72 143 2.0 7.0 0.00 0.00 0.00 49 1011.3
20260504180809 72 135 2.0 13.0 0.00 0.00 0.00 47 1011.4
20260504180242 72 175 2.0 8.0 0.00 0.00 0.00 44 1011.4
20260504175739 74 154 1.0 7.0 0.00 0.00 0.00 40 1011.3
20260504175128 75 178 1.0 7.0 0.00 0.00 0.00 37 1011.3
20260504174631 75 223 1.0 7.0 0.00 0.00 0.00 32 1011.3
20260504174443 75 178 1.0 8.0 0.00 0.00 0.00 33 1011.4
20260504173515 73 236 1.0 8.0 0.00 0.00 0.00 33 1011.6
20260504173450 74 258 2.0 7.0 0.00 0.00 0.00 33 1011.5
20260504172243 73 228 1.0 6.0 0.00 0.00 0.00 32 1011.8
20260504171703 73 223 1.0 5.0 0.00 0.00 0.00 33 1011.8
20260504171155 73 207 1.0 8.0 0.00 0.00 0.00 35 1011.9
20260504170537 73 227 1.0 6.0 0.00 0.00 0.00 34 1011.9
20260504160328 70 223 0.0 4.0 0.00 0.00 0.00 35 1012.6
20260504150808 67 225 0.0 3.0 0.00 0.00 0.00 40 1013.0
20260504150304 66 225 0.0 3.0 0.00 0.00 0.00 41 1013.0
20260504141128 62 227 2.0 11.0 0.00 0.00 0.00 46 1013.0
20260504140650 61 236 2.0 9.0 0.00 0.00 0.00 46 1013.0
20260504140620 62 194 2.0 9.0 0.00 0.00 0.00 46 1013.0
20260504130328 58 246 1.0 8.0 0.00 0.00 0.00 47 1013.6
20260504120221 56 265 1.0 5.0 0.00 0.00 0.00 50 1013.8
20260504110225 53 207 0.0 0.0 0.00 0.00 0.00 52 1014.2
20260504100403 53 180 0.0 0.0 0.00 0.00 0.00 51 1014.2
20260504100210 53 180 0.0 0.0 0.00 0.00 0.00 51 1014.3
20260504081508 54 188 0.0 6.0 0.00 0.00 0.00 51 1014.5
20260504080955 54 181 0.0 0.0 0.00 0.00 0.00 51 1014.4
20260504080606 54 181 0.0 2.0 0.00 0.00 0.00 51 1014.5
20260504070309 53 164 0.0 5.0 0.00 0.00 0.00 50 1014.8
20260504050711 51 229 0.0 1.0 0.00 0.00 0.00 58 1014.6
20260504050116 50 229 0.0 1.0 0.00 0.00 0.00 58 1014.7
20260504045645 50 229 0.0 0.0 0.00 0.00 0.00 59 1014.7
20260504045226 50 229 0.0 0.0 0.00 0.00 0.00 59 1014.8
20260504044755 50 229 0.0 0.0 0.00 0.00 0.00 60 1014.8
20260504043951 50 229 0.0 1.0 0.00 0.00 0.00 60 1014.8
20260504043532 50 229 0.0 1.0 0.00 0.00 0.00 60 1014.9
20260504042717 50 229 0.0 0.0 0.00 0.00 0.00 60 1014.8
20260504042203 50 229 0.0 2.0 0.00 0.00 0.00 61 1014.7
20260504041624 50 229 0.0 2.0 0.00 0.00 0.00 61 1014.7
20260504041458 50 229 0.0 1.0 0.00 0.00 0.00 61 1014.7
20260504040951 50 229 0.0 1.0 0.00 0.00 0.00 61 1014.7
20260504035921 50 229 0.0 0.0 0.00 0.00 0.00 61 1014.7
20260504035609 50 229 0.0 0.0 0.00 0.00 0.00 61 1014.7
20260504034813 50 229 0.0 0.0 0.00 0.00 0.00 61 1014.6
20260504034219 50 229 0.0 0.0 0.00 0.00 0.00 61 1014.6
20260504033930 50 229 0.0 0.0 0.00 0.00 0.00 61 1014.4
20260504033131 50 229 0.0 0.0 0.00 0.00 0.00 61 1014.3
20260504032710 50 229 0.0 0.0 0.00 0.00 0.00 60 1014.2
20260504032219 50 229 0.0 0.0 0.00 0.00 0.00 60 1014.3
20260504031445 50 229 0.0 0.0 0.00 0.00 0.00 60 1014.4
20260504030917 50 229 0.0 0.0 0.00 0.00 0.00 60 1014.3
20260504030301 50 229 0.0 0.0 0.00 0.00 0.00 59 1014.3
20260504025707 50 229 0.0 0.0 0.00 0.00 0.00 59 1014.3
20260504025131 50 229 0.0 0.0 0.00 0.00 0.00 60 1014.2
20260504025007 50 229 0.0 0.0 0.00 0.00 0.00 59 1014.2
20260504024020 50 229 0.0 0.0 0.00 0.00 0.00 59 1014.2
20260504023556 50 229 0.0 0.0 0.00 0.00 0.00 59 1014.2
20260504022909 51 229 0.0 0.0 0.00 0.00 0.00 59 1014.2
20260504022849 51 229 0.0 0.0 0.00 0.00 0.00 59 1014.3
20260504022600 51 229 0.0 0.0 0.00 0.00 0.00 59 1014.2